SID,Date,Time,pH,Free Cl,Total Cl,Iron,Mn,Color,Turbidity,Analyst
1383,01/01/2014,"1040      ",7.60,0.94,1.24,0.06,0.007,0,0.04,"TL                                                "
1384,01/02/2014,"0900      ",7.62,0.93,1.01,0.02,0.020,0,0.04,"TL                                                "
1385,01/03/2014,"1212      ",7.63,1.07,1.57,0.05,0.012,0,0.06,"TL                                                "
1386,01/04/2014,"0822      ",7.60,1.14,1.31,0.06,0.005,0,0.09,"TL                                                "
1387,01/05/2014,"0840      ",7.70,1.29,1.40,0.02,0.009,0,0.05,"TL                                                "
1388,01/06/2014,"0815      ",7.82,1.26,1.39,0.00,0.002,0,0.06,"WM                                                "
1389,01/07/2014,"0810      ",7.90,1.21,1.26,0.07,0.024,0,0.09,"ROBERT                                            "
1390,01/08/2014,"0835      ",7.85,1.14,1.40,0.04,0.020,0,0.09,"ML                                                "
1391,01/09/2014,"0752      ",7.70,1.01,1.40,0.05,0.005,0,0.05,"ML                                                "
1392,01/10/2014,"0800      ",7.60,1.04,1.32,0.07,0.003,0,0.08,"TL                                                "
1393,01/11/2014,"0745      ",7.85,1.34,1.36,0.06,0.016,0,0.10,"ROBERT                                            "
1394,01/12/2014,"0759      ",7.61,1.03,1.19,0.02,0.019,0,0.05,"TL                                                "
1395,01/13/2014,"0755      ",7.82,1.34,1.42,0.03,0.014,0,0.10,"WM                                                "
1396,01/14/2014,"0800      ",7.83,1.17,1.36,0.01,0.003,0,0.09,"ROBERT                                            "
1397,01/15/2014,"0805      ",7.84,1.16,1.37,0.01,0.006,0,0.07,"ROBERT                                            "
1398,01/16/2014,"0752      ",7.70,1.12,1.16,0.03,0.006,0,0.07,"TL                                                "
1399,01/17/2014,"0740      ",7.93,1.19,1.21,0.06,0.007,0,0.09,"ROBERT                                            "
1400,01/18/2014,"0930      ",7.63,1.16,1.40,0.04,0.029,0,0.06,"TL                                                "
1401,01/19/2014,"0855      ",7.95,1.32,1.36,1.03,0.022,0,0.07,"ROBERT                                            "
1402,01/20/2014,"0820      ",7.88,1.29,1.36,0.03,0.026,0,0.04,"WM                                                "
1403,01/21/2014,"0800      ",7.80,1.25,1.49,0.03,0.005,0,0.07,"ROBERT                                            "
1404,01/22/2014,"0810      ",7.85,1.06,1.26,0.03,0.003,0,0.06,"ROBERT                                            "
1405,01/23/2014,"0815      ",7.63,1.40,1.49,0.04,0.009,0,0.05,"TL                                                "
1406,01/24/2014,"0822      ",7.60,1.19,1.35,0.02,0.002,0,0.09,"TL                                                "
1407,01/25/2014,"0610      ",7.88,1.54,1.62,0.01,0.019,0,0.08,"WM                                                "
1408,01/26/2014,"0939      ",7.66,1.26,1.43,0.04,0.019,0,0.10,"TL                                                "
1584,01/26/2014,"1915      ",7.82,1.16,1.78,0.03,0.018,0,0.16,"ML                                                "
1409,01/27/2014,"0735      ",7.85,0.98,1.16,0.04,0.007,0,0.10,"WM                                                "
1410,01/28/2014,"0800      ",7.87,0.97,1.06,0.07,0.005,0,0.08,"WM                                                "
1411,01/29/2014,"0750      ",7.70,0.76,0.91,0.02,0.006,0,0.06,"TL                                                "
1412,01/30/2014,"0800      ",7.65,0.70,0.73,0.02,0.011,0,0.06,"TL                                                "
1413,01/31/2014,"0805      ",7.79,1.18,1.39,0.00,0.013,0,0.07,"ROBERT                                            "
1414,02/01/2014,"0930      ",7.60,1.27,1.49,0.04,0.037,0,0.04,"TL                                                "
1415,02/02/2014,"0750      ",7.67,1.05,1.35,0.02,0.002,0,0.04,"TL                                                "
1416,02/03/2014,"0815      ",7.85,1.34,1.65,0.02,0.031,0,0.05,"ML                                                "
1417,02/04/2014,"0800      ",7.94,1.22,1.51,0.01,0.011,0,0.09,"ML                                                "
1418,02/05/2014,"0807      ",7.65,1.13,1.32,0.03,0.026,0,0.04,"TL                                                "
1419,02/06/2014,"1120      ",7.60,1.15,1.37,0.04,0.017,0,0.04,"TL                                                "
1420,02/07/2014,"0827      ",7.70,1.18,1.36,0.05,0.011,0,0.04,"TL                                                "
1421,02/08/2014,"0830      ",7.76,1.19,1.28,0.01,0.024,0,0.08,"WM                                                "
1422,02/09/2014,"1040      ",7.81,1.37,1.46,0.00,0.023,0,0.03,"WM                                                "
1423,02/10/2014,"0840      ",7.85,1.20,1.45,0.06,0.006,1,0.14,"ML                                                "
1424,02/11/2014,"0900      ",7.86,1.27,1.41,0.03,0.016,0,0.09,"ROBERT                                            "
1425,02/12/2014,"0800      ",7.60,1.31,1.61,0.05,0.023,0,0.03,"TL                                                "
1426,02/13/2014,"0810      ",7.61,0.75,1.30,0.04,0.020,0,0.05,"TL                                                "
1427,02/14/2014,"0820      ",7.60,1.09,1.45,0.06,0.021,0,0.05,"TL                                                "
1428,02/15/2014,"0910      ",7.60,1.48,1.52,0.07,0.032,0,0.04,"TL                                                "
1429,02/16/2014,"1102      ",7.63,1.30,1.31,0.05,0.025,0,0.04,"TL                                                "
1430,02/17/2014,"0945      ",7.65,0.94,1.10,0.09,0.000,0,0.03,"TL                                                "
1431,02/18/2014,"0820      ",7.85,0.90,1.20,0.08,0.008,0,0.06,"ROBERT                                            "
1432,02/19/2014,"0815      ",7.96,1.08,1.32,0.00,0.006,0,0.05,"ROBERT                                            "
1433,02/20/2014,"0813      ",7.63,1.12,1.31,0.07,0.004,0,0.04,"TL                                                "
1434,02/21/2014,"0800      ",7.60,1.24,1.35,0.06,0.000,0,0.04,"TL                                                "
1435,02/22/2014,"0803      ",7.67,1.14,1.27,0.05,0.016,0,0.04,"TL                                                "
1436,02/23/2014,"0810      ",7.65,0.99,1.25,0.06,0.020,0,0.03,"TL                                                "
1437,02/24/2014,"0840      ",7.70,1.03,1.10,0.06,0.020,1,0.06,"WM                                                "
1438,02/25/2014,"0815      ",7.84,0.84,0.87,0.12,0.012,0,0.07,"ROBERT                                            "
1439,02/26/2014,"1045      ",7.86,1.19,1.34,0.00,0.019,0,0.05,"ROBERT                                            "
1440,02/27/2014,"0805      ",7.94,1.28,1.31,0.00,0.002,0,0.06,"ROBERT                                            "
1585,02/27/2014,"2315      ",7.84,1.34,1.38,0.00,0.100,0,0.10,"JR                                                "
1441,02/28/2014,"0810      ",7.92,1.20,1.32,0.03,0.004,0,0.07,"TL                                                "
1442,03/01/2014,"0740      ",7.91,1.32,1.34,0.02,0.022,0,0.07,"JF                                                "
1586,03/01/2014,"1900      ",7.95,1.03,1.50,0.05,0.039,0,0.13,"ML                                                "
1443,03/02/2014,"0900      ",7.64,1.27,1.46,0.07,0.006,0,0.07,"TL                                                "
1587,03/02/2014,"1800      ",7.64,1.27,1.46,0.07,0.006,0,0.07,"ML                                                "
1444,03/03/2014,"0820      ",7.81,1.51,1.63,0.03,0.034,0,0.04,"WM                                                "
1588,03/03/2014,"2220      ",7.80,1.46,1.50,0.04,0.026,0,0.11,"JR                                                "
1445,03/04/2014,"0800      ",7.91,1.23,1.40,0.01,0.039,0,0.10,"ML                                                "
1589,03/04/2014,"1850      ",7.83,1.43,1.53,0.02,0.024,0,0.08,"JR                                                "
1446,03/05/2014,"0815      ",7.65,1.37,1.47,0.07,0.034,0,0.04,"TL                                                "
1447,03/06/2014,"0737      ",7.64,1.30,1.43,0.04,0.030,0,0.10,"TL                                                "
1448,03/07/2014,"0800      ",7.70,1.09,1.50,0.07,0.027,0,0.12,"TL                                                "
1449,03/08/2014,"0810      ",7.89,1.32,1.38,0.07,0.025,0,0.08,"TL                                                "
1450,03/09/2014,"0818      ",7.72,1.21,1.49,0.04,0.000,0,0.07,"TL                                                "
1451,03/10/2014,"0810      ",7.83,1.28,1.34,0.03,0.004,0,0.09,"WM                                                "
1452,03/11/2014,"0800      ",7.81,1.29,1.42,0.03,0.000,0,0.08,"JF                                                "
1453,03/12/2014,"0755      ",7.65,1.30,1.31,0.07,0.003,0,0.05,"TL                                                "
1454,03/13/2014,"0820      ",7.66,0.96,1.02,0.03,0.000,0,0.04,"TL                                                "
1455,03/14/2014,"0800      ",7.89,0.94,1.09,0.05,0.000,0,0.04,"JF                                                "
1456,03/15/2014,"1015      ",7.60,1.24,1.30,0.04,0.023,0,0.04,"TL                                                "
1457,03/16/2014,"0805      ",7.80,1.05,1.15,0.01,0.015,0,0.05,"WM                                                "
1458,03/17/2014,"0800      ",7.80,1.18,1.28,0.03,0.006,0,0.06,"WM                                                "
1459,03/18/2014,"0825      ",7.81,1.19,1.31,0.02,0.400,0,0.06,"JF                                                "
1460,03/19/2014,"0810      ",7.65,1.08,1.20,0.06,0.036,0,0.05,"TL                                                "
1461,03/20/2014,"0817      ",7.65,0.91,1.15,0.05,0.003,0,0.04,"TL                                                "
1462,03/21/2014,"0809      ",7.62,0.93,1.11,0.06,0.000,0,0.03,"TL                                                "
1463,03/22/2014,"0857      ",7.62,1.02,1.07,0.05,0.002,0,0.03,"TL                                                "
1464,03/23/2014,"0747      ",7.65,1.33,1.54,0.06,0.007,0,0.04,"TL                                                "
1465,03/24/2014,"0750      ",7.84,0.96,1.21,0.04,0.006,0,0.06,"WM                                                "
1466,03/25/2014,"0800      ",7.98,1.12,1.17,0.03,0.007,0,0.06,"JF                                                "
1467,03/26/2014,"0800      ",7.70,1.23,1.27,0.01,0.006,0,0.07,"JF                                                "
1468,03/27/2014,"0818      ",7.62,1.21,1.36,0.02,0.022,0,0.04,"TL                                                "
1469,03/28/2014,"0819      ",7.70,1.00,1.35,0.07,0.022,0,0.03,"TL                                                "
1470,03/29/2014,"0845      ",7.64,1.22,1.45,0.06,0.020,0,0.04,"TL                                                "
1471,03/30/2014,"0840      ",7.73,1.14,1.33,0.06,0.024,0,0.04,"TL                                                "
1472,03/31/2014,"0825      ",7.80,1.11,1.27,0.02,0.024,0,0.04,"WM                                                "
1473,04/01/2014,"0750      ",7.82,1.13,1.24,0.01,0.004,0,0.06,"JF                                                "
1474,04/02/2014,"0755      ",7.65,0.97,1.33,0.03,0.014,0,0.09,"TL                                                "
1475,04/03/2014,"0800      ",7.70,1.17,1.35,0.01,0.000,0,0.04,"TL                                                "
1476,04/04/2014,"0745      ",7.69,0.81,1.36,0.02,0.002,0,0.05,"TL                                                "
1477,04/05/2014,"1013      ",7.65,0.90,1.32,0.02,0.032,0,0.05,"TL                                                "
1478,04/06/2014,"0920      ",7.66,1.27,1.33,0.03,0.000,0,0.05,"TL                                                "
1479,04/07/2014,"0830      ",7.81,1.10,1.35,0.04,0.024,0,0.09,"WM                                                "
1480,04/08/2014,"0830      ",7.82,1.22,1.58,0.04,0.007,0,0.06,"ML                                                "
1481,04/09/2014,"0830      ",7.83,1.21,1.51,0.01,0.010,0,0.05,"JF                                                "
1482,04/10/2014,"0825      ",7.89,1.09,1.37,0.01,0.005,0,0.08,"ROBERT                                            "
1483,04/11/2014,"0755      ",7.82,1.19,1.35,0.00,0.018,0,0.07,"JF                                                "
1484,04/12/2014,"0915      ",7.62,1.26,1.31,0.07,0.007,0,0.04,"TL                                                "
1485,04/13/2014,"0810      ",7.60,1.22,1.52,0.04,0.001,0,0.04,"ML                                                "
1486,04/14/2014,"0740      ",7.88,1.10,1.49,0.03,0.005,0,0.08,"WM                                                "
1487,04/15/2014,"0805      ",7.79,1.25,1.34,0.02,0.006,0,0.08,"JF                                                "
1488,04/16/2014,"0831      ",7.63,0.95,1.41,0.04,0.014,0,0.05,"TL                                                "
1489,04/17/2014,"0800      ",7.65,1.33,1.66,0.03,0.006,0,0.05,"TL                                                "
1490,04/18/2014,"0810      ",7.73,1.16,1.64,0.05,0.007,0,0.05,"TL                                                "
1491,04/19/2014,"0905      ",7.65,0.95,1.06,0.05,0.003,0,0.04,"TL                                                "
1492,04/20/2014,"0820      ",7.80,1.08,1.37,0.06,0.006,0,0.08,"JF                                                "
1493,04/21/2014,"0716      ",7.63,1.32,1.35,0.00,0.013,0,0.06,"WM                                                "
1494,04/22/2014,"1100      ",7.76,1.18,1.33,0.01,0.013,0,0.08,"JF                                                "
1495,04/23/2014,"0755      ",7.85,1.15,1.49,0.04,0.037,1,0.07,"TF                                                "
1496,04/24/2014,"0800      ",7.60,1.03,1.42,0.06,0.038,0,0.07,"TL                                                "
1497,04/25/2014,"0807      ",7.62,1.32,1.60,0.02,0.030,0,0.04,"TL                                                "
1498,04/26/2014,"1057      ",7.60,1.23,1.57,0.04,0.022,0,0.05,"TL                                                "
1499,04/27/2014,"1100      ",7.67,1.19,1.22,0.03,0.023,0,0.04,"TL                                                "
1500,04/28/2014,"0835      ",7.81,1.27,1.60,0.03,0.013,0,0.06,"WM                                                "
1501,04/29/2014,"0750      ",7.89,1.21,1.57,0.03,0.004,0,0.07,"JF                                                "
1502,04/30/2014,"0750      ",7.88,1.22,1.65,0.02,0.038,0,0.08,"ML                                                "
1590,04/30/2014,"2140      ",7.83,1.63,1.83,0.05,0.023,12,0.38,"JR                                                "
1503,05/01/2014,"0855      ",7.60,1.12,1.34,0.07,0.019,0,0.03,"TL                                                "
1591,05/01/2014,"1850      ",7.93,1.84,2.00,0.00,0.065,0,0.22,"JR                                                "
1504,05/02/2014,"0810      ",7.82,1.66,1.97,0.00,0.046,0,0.06,"WM                                                "
1592,05/02/2014,"1910      ",7.79,0.92,1.48,0.01,0.012,0,0.07,"JF                                                "
1505,05/03/2014,"0855      ",7.75,1.27,1.62,0.08,0.035,0,0.07,"TL                                                "
1593,05/03/2014,"1955      ",7.83,0.98,1.46,0.00,0.031,0,0.07,"ML                                                "
1506,05/04/2014,"0705      ",7.85,1.24,1.30,0.00,0.023,0,0.10,"JF                                                "
1594,05/04/2014,"1740      ",7.85,1.11,1.42,0.00,0.009,0,0.07,"ML                                                "
1507,05/05/2014,"0755      ",7.87,1.00,1.40,0.01,0.005,0,0.04,"ML                                                "
1595,05/05/2014,"1745      ",7.87,1.18,1.53,0.03,0.010,0,0.18,"SBK                                               "
1508,05/06/2014,"0955      ",7.65,1.11,1.49,0.01,0.022,0,0.07,"JF                                                "
1596,05/06/2014,"1700      ",7.98,1.70,1.49,0.02,0.040,0,0.14,"SBK                                               "
1509,05/07/2014,"0810      ",7.64,1.16,1.33,0.01,0.003,0,0.03,"TL                                                "
1597,05/07/2014,"1845      ",7.81,1.25,1.28,0.00,0.006,0,0.12,"SBK                                               "
1510,05/08/2014,"0810      ",7.87,1.25,1.91,0.02,0.004,0,0.09,"JF                                                "
1511,05/09/2014,"0855      ",7.65,0.77,0.81,0.02,0.026,0,0.07,"TL                                                "
1512,05/10/2014,"0800      ",7.62,0.85,1.01,0.01,0.029,0,0.05,"TL                                                "
1513,05/11/2014,"0832      ",7.61,0.80,1.23,0.03,0.020,0,0.07,"TL                                                "
1514,05/12/2014,"1020      ",7.77,1.20,1.40,0.01,0.029,0,0.08,"WM                                                "
1515,05/13/2014,"1055      ",7.91,0.99,1.20,0.01,0.022,0,0.09,"JF                                                "
1516,05/14/2014,"0745      ",7.60,0.89,1.10,0.03,0.002,0,0.08,"TL                                                "
1517,05/15/2014,"0640      ",7.84,0.86,1.09,0.06,0.030,0,0.12,"JF                                                "
1518,05/16/2014,"0750      ",7.72,0.75,0.92,0.00,0.020,0,0.09,"TL                                                "
1519,05/17/2014,"0725      ",7.81,0.94,1.10,0.05,0.025,0,0.12,"JF                                                "
1520,05/18/2014,"0822      ",7.67,0.82,0.84,0.06,0.035,1,0.11,"TL                                                "
1521,05/19/2014,"0810      ",7.87,0.89,1.05,0.03,0.034,0,5.00,"WM                                                "
1522,05/20/2014,"0815      ",7.80,1.19,1.37,0.07,0.029,0,0.15,"JF                                                "
1523,05/21/2014,"0910      ",7.60,1.06,1.30,0.05,0.027,0,0.12,"TL                                                "
1524,05/22/2014,"0810      ",7.60,0.91,1.35,0.06,0.016,0,0.10,"TL                                                "
1525,05/23/2014,"0805      ",7.66,1.11,1.27,0.12,0.060,5,0.17,"TL                                                "
1526,05/24/2014,"0905      ",7.61,0.96,1.15,0.02,0.057,0,0.08,"TL                                                "
1527,05/25/2014,"1045      ",7.65,1.13,1.34,0.02,0.070,0,0.04,"TL                                                "
1528,05/26/2014,"0815      ",7.73,0.60,0.87,0.05,0.080,2,0.08,"TL                                                "
1529,05/27/2014,"0810      ",7.92,0.94,1.04,0.01,0.041,0,0.07,"JF                                                "
1530,05/28/2014,"0805      ",7.88,1.21,1.24,0.05,0.007,0,0.10,"JF                                                "
1531,05/29/2014,"0807      ",7.67,1.02,1.09,0.04,0.015,0,0.09,"TL                                                "
1532,05/30/2014,"0840      ",7.65,0.81,1.16,0.04,0.024,0,0.07,"TL                                                "
1533,05/31/2014,"0800      ",7.70,1.31,1.41,0.04,0.012,2,0.14,"TL                                                "
1534,06/01/2014,"0800      ",7.70,1.31,1.41,0.04,0.012,2,0.14,"TL                                                "
1535,06/02/2014,"0815      ",7.85,1.24,1.43,0.01,0.024,0,0.06,"WM                                                "
1536,06/03/2014,"0900      ",7.84,1.13,1.15,0.02,0.024,0,0.07,"JF                                                "
1537,06/04/2014,"0755      ",7.91,1.05,1.38,0.02,0.036,0,0.08,"JF                                                "
1538,06/05/2014,"0807      ",7.67,1.17,1.32,0.09,0.082,0,0.07,"TL                                                "
1539,06/06/2014,"1115      ",7.70,0.90,1.02,0.02,0.023,0,0.03,"TL                                                "
1540,06/07/2014,"0800      ",7.89,0.78,0.87,0.01,0.050,0,0.06,"JF                                                "
1541,06/08/2014,"0935      ",7.65,0.91,1.30,0.03,0.002,0,0.03,"TL                                                "
1542,06/09/2014,"0820      ",7.75,1.22,1.36,0.00,0.006,0,0.05,"WM                                                "
1543,06/10/2014,"1810      ",7.80,1.19,1.38,0.04,0.045,0,0.12,"JR                                                "
1544,06/11/2014,"0820      ",7.87,0.89,0.95,0.00,0.024,0,0.08,"JF                                                "
1545,06/12/2014,"0815      ",7.65,0.85,1.09,0.03,0.031,0,0.05,"TL                                                "
1546,06/13/2014,"0815      ",7.67,0.80,1.11,0.03,0.023,0,0.06,"TL                                                "
1547,06/14/2014,"1218      ",7.66,1.27,1.40,0.06,0.040,0,0.05,"TL                                                "
1548,06/15/2014,"1304      ",7.62,0.72,1.11,0.04,0.031,2,0.05,"TL                                                "
1549,06/16/2014,"0755      ",7.82,0.94,1.09,0.02,0.018,0,0.08,"WM                                                "
1550,06/17/2014,"0735      ",7.80,0.99,1.22,0.01,0.020,0,0.07,"JF                                                "
1551,06/18/2014,"0540      ",7.92,0.95,1.27,0.02,0.043,0,0.09,"ML                                                "
1552,06/19/2014,"0800      ",6.65,1.09,1.11,0.04,0.024,0,0.09,"TL                                                "
1598,06/19/2014,"1225      ",7.91,1.16,1.17,0.06,0.033,3,0.21,"JR                                                "
1553,06/20/2014,"1200      ",7.62,1.07,1.13,0.00,0.079,0,0.14,"TL                                                "
1554,06/21/2014,"0800      ",7.67,0.95,1.01,0.04,0.044,4,0.10,"TL                                                "
1555,06/22/2014,"0857      ",7.67,0.77,0.79,0.05,0.034,0,0.04,"TL                                                "
1556,06/23/2014,"0810      ",7.84,0.90,1.05,0.00,0.013,0,0.05,"WM                                                "
1557,06/24/2014,"0820      ",7.92,1.16,1.18,0.01,0.022,0,0.07,"JF                                                "
1558,06/25/2014,"0845      ",7.89,1.16,1.34,0.00,0.034,0,0.08,"JF                                                "
1559,06/26/2014,"0925      ",7.87,1.25,1.31,0.03,0.044,0,0.10,"TF                                                "
1560,06/27/2014,"1430      ",7.85,1.15,1.39,0.00,0.038,0,0.11,"WM                                                "
1561,06/28/2014,"0800      ",7.78,1.32,1.45,0.02,0.050,0,0.07,"TF                                                "
1562,06/29/2014,"0813      ",7.88,0.97,1.14,0.00,0.054,0,0.06,"WM                                                "
1563,06/30/2014,"0800      ",7.84,0.97,1.27,0.02,0.035,0,0.07,"WM                                                "
1564,07/01/2014,"0810      ",7.83,1.19,1.33,0.04,0.007,0,0.15,"JF                                                "
1565,07/02/2014,"0810      ",7.93,1.18,1.21,0.06,0.037,0,0.10,"JF                                                "
1566,07/03/2014,"0900      ",7.72,0.80,0.91,0.01,0.002,0,0.10,"JF                                                "
1567,07/04/2014,"0734      ",8.04,0.90,0.94,0.01,0.032,0,0.09,"ML                                                "
1568,07/05/2014,"0900      ",7.72,0.80,0.91,0.01,0.002,0,0.10,"JF                                                "
1569,07/06/2014,"0734      ",8.04,0.90,0.94,0.01,0.032,0,0.09,"WM                                                "
1570,07/07/2014,"0805      ",7.91,0.94,1.10,0.04,0.031,0,0.07,"WM                                                "
1571,07/08/2014,"0715      ",7.92,0.77,0.88,0.01,0.004,0,0.07,"JF                                                "
1572,07/09/2014,"1020      ",7.66,0.49,0.77,0.04,0.021,0,0.06,"TL                                                "
1573,07/10/2014,"0800      ",7.65,0.99,1.02,0.05,0.023,0,0.04,"TL                                                "